This demonstration page uses our WeatherBlox Daily Observations layout. Learn more.

Left ArrowRight Arrow

Hourly Observations for November 9, 2022

Temp ( °F °C ) Dew Point ( °F °C ) Humidity (%) Winds ( mph kmh ) Pressure ( in mb ) Visibility ( mi km ) Precip ( " mm )
12:40 am 00:40 Cloudy with Mist and Fog 61 16 61 16 100 100 SSE 16 26 30.09 1019 4 6 0.00 0.00
12:55 am 00:55 Cloudy with Mist and Fog 60 15.8 60 15.8 100 100 SE 17 28 30.11 1020 5 8 0.00 0.00
1:10 am 01:10 Cloudy with Mist and Fog 61 16 61 16 100 100 SE 15 24 30.11 1020 5 8 0.00 0.00
1:55 am 01:55 Cloudy 61 16.2 61 16.2 100 100 SE 15 24 30.10 1019 10 16 0.00 0.00
2:25 am 02:25 Cloudy 63 17 61 16 94 94 SSE 14 22 30.10 1019 10 16 0.00 0.00
2:55 am 02:55 Cloudy 62 16.6 61 16.3 98 98 SE 14 22 30.09 1019 10 16 0.00 0.00
3:10 am 03:10 Cloudy 63 17 61 16 94 94 SE 14 22 30.08 1019 7 11 0.00 0.00
3:55 am 03:55 Cloudy 62 16.8 61 16 95 95 SSE 16 26 30.06 1018 10 16 0.00 0.00
4:55 am 04:55 Cloudy 63 17.1 61 15.9 93 93 SSE 15 24 30.04 1017 10 16 0.00 0.00
5:55 am 05:55 Cloudy 62 16.8 60 15.6 93 93 SE 10 17 30.06 1018 10 16 0.00 0.00
6:55 am 06:55 Cloudy 62 16.8 60 15.5 92 92 SE 12 19 30.04 1017 10 16 0.00 0.00
7:55 am 07:55 Cloudy 62 16.8 60 15.5 92 92 SE 10 17 30.04 1017 10 16 0.00 0.00
8:55 am 08:55 Cloudy 63 17.4 60 15.7 90 90 SE 12 19 30.04 1017 10 16 0.00 0.00
9:55 am 09:55 Mostly Cloudy 68 20.2 63 17 82 82 S 16 26 30.00 1016 10 16 0.00 0.00
10:40 am 10:40 Mostly Cloudy 72 22 63 17 73 73 S 22 35 29.99 1016 10 16 0.00 0.00
10:55 am 10:55 Cloudy 72 22.4 62 16.6 70 70 S 16 26 29.98 1015 10 16 0.00 0.00
11:55 am 11:55 Mostly Cloudy 74 23.5 61 16.3 64 64 S 18 30 29.96 1015 10 16 0.00 0.00
12:55 pm 12:55 Mostly Cloudy 74 23.3 60 15.8 63 63 S 14 22 29.94 1014 10 16 0.00 0.00
1:55 pm 13:55 Cloudy 74 23.6 60 15.4 60 60 S 17 28 29.91 1013 10 16 0.00 0.00
2:55 pm 14:55 Cloudy 75 23.8 60 15.3 59 59 S 18 30 29.89 1012 10 16 0.00 0.00
3:55 pm 15:55 Cloudy 75 23.9 59 15.1 58 58 S 17 28 29.88 1012 10 16 0.00 0.00
4:55 pm 16:55 Cloudy 73 22.6 60 15.4 64 64 SSE 18 30 29.86 1011 10 16 0.00 0.00
5:55 pm 17:55 Cloudy 71 21.7 60 15.5 68 68 SSE 17 28 29.85 1011 10 16 0.00 0.00
6:55 pm 18:55 Cloudy 69 20.8 60 15.3 71 71 SSE 20 31 29.85 1011 10 16 0.00 0.00
7:55 pm 19:55 Mostly Cloudy 69 20.4 60 15.4 73 73 SSE 21 33 29.83 1010 10 16 0.00 0.00
8:55 pm 20:55 Cloudy 67 19.6 60 15.4 77 77 SSE 18 30 29.83 1010 10 16 0.00 0.00
9:25 pm 21:25 Cloudy 68 20 59 15 73 73 SE 18 30 29.83 1010 10 16 0.00 0.00
9:55 pm 21:55 Cloudy 66 19.1 60 15.4 79 79 SE 16 26 29.83 1010 10 16 0.00 0.00
10:40 pm 22:40 Cloudy 66 19 61 16 83 83 SE 16 26 29.83 1010 10 16 0.00 0.00
10:55 pm 22:55 Cloudy 66 19 60 15.5 80 80 SSE 15 24 29.83 1010 10 16 0.00 0.00
11:55 pm 23:55 Cloudy 66 19.1 60 15.4 79 79 SE 12 19 29.81 1010 10 16 0.00 0.00

Powered by AerisWeather